Hourly Data Report for May 09, 2021

CARIBOU POINT (AUT)
NOVA SCOTIA
Current Station Operator: ECCC - MSC

45°46'00.000" N
62°41'00.000" W
2.40 m
8200774
71415
WBK

Download Data

Hourly Data (May 2021)
Hourly Data Report for May 9, 2021
TIME
LST
Temp Definition
°C
Dew Point Definition
°C
Rel Hum Definition
%
Precip. Amount Definition
mm

Wind Dir Definition
10's deg

Wind Spd Definition
km/h
Visibility Definition
km
Stn Press Definition
kPa
Hmdx Definition


Wind Chill Definition


Weather Definition


00:00 4.4 3.9 96 1.3 1 39   98.79     LegendNANA
01:00 4.3 3.7 96 0.3 32 32   98.83     LegendNANA
02:00 4.0 3.7 98 0.5 32 42   98.86     LegendNANA
03:00 4.3 4.1 99 0.3 31 44   98.95     LegendNANA
04:00 4.5 4.0 97 0.2 31 50   99.05     LegendNANA
05:00 4.2 3.8 98 0.3 30 57   99.22     LegendNANA
06:00 3.5 2.6 94 0.4 30 61   99.42     LegendNANA
07:00 3.9 2.9 93 0.0 30 59   99.58     LegendNANA
08:00 4.0 2.8 92 0.3 30 57   99.70     LegendNANA
09:00 4.8 2.8 87 0.0 30 55   99.81     LegendNANA
10:00 5.5 3.2 86 0.0 29 51   99.89     LegendNANA
11:00 6.3 5.0 91 0.6 29 49   99.99     LegendNANA
12:00 5.6 3.6 87 0.0 31 44   100.06     LegendNANA
13:00 6.3 3.9 84 0.0 30 36   100.14     LegendNANA
14:00 7.4 4.5 82 0.0 30 38   100.19     LegendNANA
15:00 7.9 4.2 77 0.0 29 37   100.26     LegendNANA
16:00 6.7 3.7 81 0.0 32 24   100.37     LegendNANA
17:00 7.0 3.5 79 0.0 31 25   100.47     LegendNANA
18:00 6.5 3.5 81 0.0 31 25   100.56     LegendNANA
19:00 6.4 2.9 78 0.0 33 27   100.64     LegendNANA
20:00 6.2 3.5 83 0.0 31 19   100.72     LegendNANA
21:00 5.8 3.5 85 0.0 31 13   100.81     LegendNANA
22:00 5.0 2.9 87 0.0 28 7   100.87     LegendNANA
23:00 4.1 2.8 91 0.0 24 6   100.88     LegendNANA

Notes on Data Quality.

Legend

  • E = Estimated
  • M = Missing
  • NA = Not Available*
  • [empty] = Indicates an unobserved value
Date modified: